Tracking 17784 objects as of 23-July-2016
HD Live streaming from Space Station
objects crossing your sky now

BREEZE-M DEB

Track BREEZE-M DEB now!
10-day predictions


NORAD ID: 34250
Int'l Code: 2006-006BR
Perigee: 474.9 km
Apogee: 14,767.3 km
Inclination: 51.7 °
Period: 274.5 minutes
Semi major axis: 13992 km
RCS: 0.0694 m2 (small)
Launch date: February 28, 2006
Source: Commonwealth of Independent States (former USSR) (CIS)
Launch site: TYURATAM MISSILE AND SPACE COMPLEX (TTMTR)

Note: This is SATELLITE DEBRIS
Your satellite tracking list
Your tracking list is empty





NASA's NSSDC Master Catalog

Two Line Element Set (TLE):
1 34250U 06006BR  16204.22351107  .00000717  00000-0  89836-3 0  9992
2 34250  51.7000 278.7459 5107313 218.7596  90.5041  5.24539066164795
Source of the keplerian elements: AFSPC

N2YO: 863